TELKOM 3S (41944 NORAD) Tracking and Keplerian Element Data

This shows tracking and keplerian element data for the satellite.

Feedback or suggestion? Click here.




ElementValue
Catalog41944
NameTELKOM 3S
Epoch Orbit639
Epoch Day322.51239931
Epoch Year2018
RAAN285.6842
Inclination0.0134
Eccentricity0.0002691
Argument of Perigee310.0141
Mean Anonmoly124.3102
Mean Motion1.00272257
Decay Rate-3.54E-06
L11 41944U 17007A 18322.51239931 -.00000354 00000-0 00000-0 0 9999
L22 41944 0.0134 285.6842 0002691 310.0141 124.3102 1.00272257 6392

Live tracking and technical data element details for TELKOM 3S (NORAD 41944). TELKOM 3S can be tracked NOW for your location showing map with azimuth and elevation plus other details from your city location.

Track the satellite on the map from your city or location and see movement details for azimuth, elevation, latitude, longitude, range, height, and movement on the map or in text.







IsCatalogInMostPopularTable: catalog: 41944, numindb: 127
Update: records affected: 1



GetName: 41944 TELKOM 3S

Hit Count: updated at: Mon, 19 Nov 2018 10:58:25 GMT